Regional Weather Roundup
Issued by NWS

Home | Current Version | Previous Version | Graphics & Text | Print | Product List | Glossary On
Versions: 1 2 3 4 5 6 7 8 9 10 11 12 13 14 15 16 17 18 19 20 21 22 23 24 25 26 27 28 29 30 31 32 33 34 35 36 37 38 39 40 41 42 43 44 45 46 47 48 49 50
885
ASUS45 KTFX 261810
RWRMT
MONTANA REGIONAL WEATHER ROUNDUP
NATIONAL WEATHER SERVICE GREAT FALLS MT
1200 PM MDT WED APR 26 2017

NOTE: "FAIR" INDICATES FEW OR NO CLOUDS BELOW 12000 FEET WITH NO
SIGNIFICANT WEATHER AND/OR OBSTRUCTIONS TO VISIBILITY.

MTZ001>007-043-261900-
WEST OF THE DIVIDE

CITY           SKY/WX    TMP DP  RH WIND       PRES   REMARKS
KALISPELL      LGT RAIN  42  38  85 E5        29.69F
MISSOULA       CLOUDY    46  40  79 SE3       29.72S
BUTTE          CLOUDY    45  26  47 N3        29.68F
MULLAN PASS    SNOW      31  30  96 W8        29.67R VSB 1/2 WCI  23
ANACONDA         N/A     46  27  46 W9G24     29.68F
DEER LODGE       N/A     48  28  46 S7        29.68F
EUREKA           N/A     46  37  71 SE7       29.67F
HAMILTON         N/A     52  34  50 S15       29.70S
LIBBY            N/A     43  39  87 NW3       29.67F
$$

MTZ008-052>055-261900-
SOUTHWEST MONTANA

CITY           SKY/WX    TMP DP  RH WIND       PRES   REMARKS
BOZEMAN        LGT RAIN  46  34  62 W15       29.70F
DILLON         LGT RAIN  47  32  56 S14       29.69F
W YELLOWSTONE  CLOUDY    36  27  69 SW15      29.77F WCI  26
THREE FORKS      N/A     50  14  23 CALM      29.72F
$$

MTZ009-010-012-014-046-048-049-054-261900-
EAST SLOPES AND CENTRAL MONTANA

CITY           SKY/WX    TMP DP  RH WIND       PRES   REMARKS
CUT BANK       PTSUNNY   43  36  76 S5        29.66F
GREAT FALLS    CLOUDY    47  34  60 SW10      29.68S
MALMSTROM AFB  CLOUDY    47  38  68 SW15G26   29.68F
HELENA         CLOUDY    51  38  60 N7        29.67F
AUGUSTA        PTSUNNY   43  35  73 S6        29.65F
BOWMANS CRNR   PTSUNNY   44  36  73 S17       29.63F
CHOTEAU          N/A     46  36  66 SE8       29.67F
FAIRFIELD      PTSUNNY   46  33  61 SE7       29.65F
POWER          LGT RAIN  44  37  76 S3        29.67F
RAYNESFORD     PTSUNNY   46  33  59 SW13      29.67F
ULM            LGT RAIN  46  39  77 SE6       29.68F
$$

MTZ011-013-016-021-045-047-050-051-261900-
NORTH CENTRAL MONTANA

CITY           SKY/WX    TMP DP  RH WIND       PRES   REMARKS
HAVRE          CLOUDY    49  35  58 CALM      29.70F
LEWISTOWN      CLOUDY    44  36  73 E9        29.69F
CHINOOK          N/A     48  36  61 E17G25    29.71F
DENTON         PTSUNNY   44  38  80 MISG      29.67F
FORT BENTON      N/A     52  37  58 MISG      29.69F
GEYSER         PTSUNNY   45  35  69 SE6       29.67F
GRASS RANGE    CLOUDY    41  37  84 N3        29.69F
JUDITH GAP     PTSUNNY   41  36  82 S16G23    29.70F
STANFORD       PTSUNNY   45  35  66 CALM      29.67F
WINIFRED       PTSUNNY   46  38  73 E12       29.69F
$$

MTZ017>020-022>027-061-062-261900-
NORTHEAST MONTANA

CITY           SKY/WX    TMP DP  RH WIND       PRES   REMARKS
GLASGOW        CLOUDY    42  24  49 S14       29.83F
JORDAN           N/A     40  28  62 SE12      29.81F
SIDNEY         SUNNY     42  23  46 VRB6      29.86F
WOLF POINT     CLOUDY    45  23  42 E6G17     29.85F
PLENTYWOOD       N/A     39  19  45 SE9G16    29.87F
POPLAR           N/A     41  19  42 E6        29.87F
$$

MTZ028>42-056>058-261900-
SOUTHCENTRAL AND SOUTHEAST MONTANA

CITY           SKY/WX    TMP DP  RH WIND       PRES   REMARKS
BAKER          CLOUDY    35  23  61 CALM      29.84F
BILLINGS       CLOUDY    36  34  92 S5        29.75F
LIVINGSTON     CLOUDY    49  36  61 W7        29.69F
MILES CITY     CLOUDY    39  26  59 SE12      29.83F WCI  32
BIG TIMBER     PTSUNNY   43  39  87 E5        29.73F
LAUREL           N/A     37  26  65 NE5       29.75F VSB 0
ROUNDUP          N/A     42  31  65 E6        29.69F
$$

REGIONAL REPORTS...DAKOTAS

CITY           SKY/WX    TMP DP  RH WIND       PRES   REMARKS
WILLISTON      SUNNY     45  23  42 E10       29.88F
MINOT          SUNNY     43  22  43 N18G29    29.84F
DICKINSON      SUNNY     42  22  44 N13       29.81F
BEACH          PTSUNNY   41  23  48 E7        29.86F
TIOGA            N/A     39  23  52 NE12      29.88F WCI  32
WATFORD CITY     N/A     41  21  45 N9        29.86F
BISMARCK       CLOUDY    41  25  53 NE13      29.82F
GRAND FORKS    LGT SNOW  31  26  82 N18G26    29.80F WCI  19
FARGO          FLURRIES  29  26  89 N24       29.73F WCI  15
BUFFALO SD       N/A     36  25  64 N6        29.75F WCI  31
RAPID CITY     CLOUDY    32  24  72 NW12      29.82F WCI  23
$$

REGIONAL REPORTS...WYOMING/IDAHO/WASHINGTON

CITY           SKY/WX    TMP DP  RH WIND       PRES   REMARKS
GILLETTE       CLOUDY    35  35 100 N5        29.78R
SHERIDAN       CLOUDY    33  27  78 N3        29.78F
BUFFALO WY     CLOUDY    34  25  69 CALM      29.75S
CODY           SUNNY     49  27  42 W12       29.71F
YELLOWSTONE LA   N/A     33  25  72 VRB5      29.78S
IDAHO FALLS    CLOUDY    47  37  68 S17G28    29.80F
SALMON         CLOUDY    46  34  61 NW8       29.72F
BOISE          CLOUDY    52  42  69 SW6       29.81R
SPOKANE        CLOUDY    51  38  60 SW20      29.70S
$$

REGIONAL REPORTS...ALBERTA

CITY           SKY/WX    TMP DP  RH WIND       PRES   REMARKS
CALGARY        CLOUDY    34  28  80 S8        29.67F HAZE    WCI  27
LETHBRIDGE     CLOUDY    37  36  93 E5        29.68F
MEDICINE HAT   LGT RAIN  39  36  87 VRB2      29.72F
WATERTON GATE    N/A     41  34  75 SE2         N/A
CARDSTON         N/A     43  34  70 NW2         N/A
MILK RIVER       N/A     43  39  87 SE7         N/A
$$

REGIONAL REPORTS...SASKATCHEWAN

CITY           SKY/WX    TMP DP  RH WIND       PRES   REMARKS
SWIFT CURRENT  CLOUDY    37  30  75 S21       29.78F WCI  27
REGINA         PTSUNNY   39  19  45 SE9G18    29.91F
SASKATOON      CLOUDY    39  27  60 SE20G25   29.92F WCI  30
VAL MARIE        N/A     45  25  45 SE17G23     N/A
ROCKGLEN         N/A     37  27  65 SE9         N/A  WCI  31
$$




USA.gov is the U.S. government's official web portal to all federal, state and local government web resources and services.